Location: Contre
(49.7477°N, 2.0963°E)
Time: 10:14:31
(UTC+00:00)

ISS - Pass Details

Date: 03 March 2024
Orbit: 413 x 419 km, 51.6° (Epoch: 13 April)

Event Time Altitude Azimuth Distance (km) Brightness Sun altitude
Exits shadow 04:18:26 65° 78° (ENE) 473 -3.4 -21.9°
Drops below altitude 10° 04:21:27 10° 101° (ESE) 1,518 0.0 -21.4°
Sets 04:23:33 0° 103° (ESE) 2,382 1.1 -21.1°
